Regional Weather Roundup
Issued by NWS

Home | Current Version | Previous Version | Text Only | Print | Product List | Glossary On
Versions: 1 2 3 4 5 6 7 8 9 10 11 12 13 14 15 16 17 18 19 20 21 22 23 24 25 26 27 28 29 30 31 32 33 34 35 36 37 38 39 40 41 42 43 44 45 46 47 48 49 50
000
ASUS43 KBIS 180510
RWRND

NORTH DAKOTA REGIONAL WEATHER ROUNDUP
NATIONAL WEATHER SERVICE BISMARCK ND
1100 PM CST FRI NOV 17 2017

NOTE: "FAIR" INDICATES FEW OR NO CLOUDS BELOW 12,000 FEET WITH NO
SIGNIFICANT WEATHER AND/OR OBSTRUCTIONS TO VISIBILITY.


NDZ001>003-009>011-017-180600-
NORTHWEST NORTH DAKOTA

CITY           SKY/WX    TMP DP  RH WIND       PRES   REMARKS
WILLISTON      CLEAR     13   8  81 N13       29.88R WCI  -2
MINOT          CLEAR     17  11  77 NW10      29.81R WCI   5
MINOT AFB      MOCLDY    15  10  79 NW13      29.81R WCI   1
$$

NDZ018>021-031>035-040>046-180600-
SOUTHWEST NORTH DAKOTA

CITY           SKY/WX    TMP DP  RH WIND       PRES   REMARKS
BISMARCK       CLOUDY    29  26  89 SW7       29.80R
DICKINSON      CLEAR     24  23  96 W9        29.77R WCI  14
GARRISON         N/A     19  15  84 N7        29.79R WCI  10
HETTINGER ARPT MOCLDY    28  25  88 NW8       29.81R WCI  20
$$

NDZ004>008-012>016-024-026-027-054-180600-
NORTHEAST NORTH DAKOTA

CITY           SKY/WX    TMP DP  RH WIND       PRES   REMARKS
GRAND FORKS    CLOUDY    15  13  91 W6        29.82R WCI   6
GRND FRKS AFB  CLOUDY    14  10  86 NW8       29.82R WCI   3
DEVILS LAKE    CLOUDY    11   9  92 NW6       29.80S WCI   1
$$

NDZ022-023-025-028>030-036>039-047>053-180600-
SOUTHEAST NORTH DAKOTA

CITY           SKY/WX    TMP DP  RH WIND       PRES   REMARKS
FARGO          CLOUDY    23  16  74 N7        29.79S WCI  15
JAMESTOWN      CLOUDY    18  15  88 N6        29.79R WCI  10
$$





USA.gov is the U.S. government's official web portal to all federal, state and local government web resources and services.